Theta_e
312 312 311 311 312 312 312 312 312 312 312 312 312 312 313 313 313 313 313 313 314 314 314 314 314 314 314 315 315 315 314 308 306 304 304 306 317 321 326 326 329 329 325 315 311 307 301 303 303 305 306 306 304 304 307 304 302 300 293 290 288 289 291 292 294 294 296 295 297 297 298 297 297 299 302 310 329 331 332 332 333 334 333 335 336 337 337 336
311 311 311 311 311 312 312 312 312 312 311 311 312 312 312 313 312 313 313 313 313 314 314 314 314 314 314 314 315 315 311 307 304 304 304 313 323 324 326 327 329 330 323 307 305 306 298 299 301 304 303 302 307 301 304 298 303 295 291 289 289 290 293 296 296 297 295 296 298 298 298 298 299 299 301 298 315 326 327 330 330 329 332 334 334 335 334 334
311 311 311 311 311 311 311 311 311 311 311 311 312 312 312 312 313 313 313 313 313 313 314 314 314 314 314 314 314 314 309 304 305 300 302 320 321 325 328 331 330 329 311 306 307 307 302 299 301 302 302 301 302 301 302 298 300 296 293 288 291 293 294 297 298 298 298 297 297 298 299 298 298 300 302 298 305 327 325 326 327 328 328 330 332 333 333 333
311 311 311 311 311 311 311 311 311 311 311 311 312 311 312 312 312 313 313 313 313 313 313 313 314 314 314 314 314 311 307 304 297 301 307 330 326 323 328 330 330 327 309 307 308 308 308 306 302 302 303 301 302 304 299 299 298 294 293 290 291 295 295 298 299 298 299 300 299 298 298 297 298 299 300 300 305 318 325 330 329 327 329 330 332 332 332 331
311 311 312 311 311 311 311 311 311 311 311 311 311 311 311 312 312 312 313 313 313 313 313 313 313 314 314 314 313 310 304 291 294 310 313 331 332 326 329 330 331 318 308 305 305 305 305 303 304 302 303 298 301 300 297 299 299 296 293 296 296 296 295 299 299 298 298 299 298 297 298 298 299 300 299 299 295 296 320 329 333 332 333 332 331 331 332 331
310 310 310 312 311 310 311 310 310 311 311 311 311 311 312 312 312 312 312 313 313 312 312 313 313 313 314 313 310 306 295 283 303 305 335 330 330 328 329 330 333 313 307 305 302 303 302 302 301 299 298 299 296 296 295 300 300 292 295 294 296 297 296 299 300 299 299 299 297 297 299 300 296 297 297 299 297 296 306 331 335 334 335 335 334 333 331 331
310 310 310 310 310 310 311 311 310 310 311 311 311 311 311 312 312 312 312 313 312 312 312 312 313 313 313 312 307 306 295 292 302 305 330 331 330 329 334 333 327 309 306 303 302 301 301 301 302 299 299 298 299 296 300 299 299 296 293 293 296 297 296 299 298 299 296 296 297 298 299 299 296 295 299 298 299 300 312 337 337 336 336 336 333 333 332 331
309 310 311 310 310 310 310 310 310 310 311 311 311 311 311 311 311 311 312 312 312 312 312 312 312 313 312 306 303 297 298 296 302 307 333 332 330 331 328 318 311 309 304 302 301 300 301 301 301 303 298 296 295 298 300 298 298 295 295 296 297 297 297 298 297 295 296 296 296 298 297 297 296 297 298 297 299 302 331 337 338 338 337 336 334 333 333 333
309 309 310 309 309 310 310 310 310 310 310 311 311 311 311 311 311 311 311 311 311 312 312 312 312 312 312 306 301 292 293 306 309 312 329 324 322 319 312 310 309 309 306 304 303 302 302 302 304 304 296 298 301 298 298 296 291 295 296 297 297 298 298 298 296 296 295 298 297 297 295 295 296 299 298 298 298 308 333 336 337 337 336 335 334 334 333 333
309 309 308 309 309 309 309 310 311 310 310 310 310 310 310 310 310 310 311 311 311 311 311 312 312 312 307 303 300 287 296 309 312 316 323 319 318 314 312 314 309 307 306 305 304 303 302 304 306 305 303 300 301 298 299 296 292 296 298 298 297 297 297 298 296 296 297 298 297 297 294 296 297 297 290 295 298 312 331 333 335 335 334 334 334 333 333 332
309 309 309 309 309 309 310 310 310 310 310 310 310 310 310 310 310 310 310 311 311 311 311 311 313 312 303 304 295 289 305 312 316 319 318 318 315 310 309 314 309 307 306 304 304 306 306 306 308 309 304 298 298 295 297 296 298 297 297 296 296 297 297 297 297 297 297 298 297 297 295 294 296 297 293 296 298 313 327 330 332 333 333 333 333 332 331 330
309 309 308 308 309 309 309 309 309 310 310 310 309 310 309 309 310 310 310 311 311 311 311 312 312 309 305 301 295 294 307 310 318 318 319 319 315 312 312 315 311 307 305 303 305 307 309 309 309 306 296 299 292 298 297 298 298 297 296 292 292 293 294 295 296 298 303 296 299 296 295 293 295 295 296 297 299 309 326 328 330 330 330 330 330 330 328 328
309 309 308 308 308 309 309 309 309 309 309 309 309 309 309 309 310 310 311 311 311 311 312 312 312 309 302 290 296 304 307 307 307 305 320 323 320 320 316 316 313 308 307 306 305 308 310 309 308 302 302 298 296 292 296 299 297 298 296 292 292 290 290 295 298 298 298 297 298 298 285 289 292 296 297 299 298 302 324 326 328 328 327 327 327 327 327 326
309 309 309 309 308 308 309 309 309 309 309 308 308 308 309 309 309 310 311 311 312 312 312 313 311 308 301 293 303 308 309 308 307 305 304 321 317 313 316 315 313 310 308 307 307 308 308 306 306 305 302 298 295 300 298 296 298 293 293 292 289 287 287 296 297 296 296 298 297 298 287 290 293 294 297 297 297 298 322 325 326 326 325 325 326 325 325 325
309 309 309 309 308 308 308 308 308 308 308 308 308 308 308 308 310 310 311 311 312 312 312 313 311 303 294 295 307 311 324 317 308 307 307 313 313 306 308 311 307 309 308 307 307 308 309 308 303 299 295 300 299 295 290 290 291 292 289 283 286 288 290 295 298 296 294 297 297 296 288 290 294 293 296 297 296 297 320 323 324 324 324 323 323 323 324 324
309 309 309 308 307 308 308 308 308 308 308 308 308 308 309 309 309 310 310 310 312 312 312 306 306 304 298 289 298 317 308 310 308 313 311 312 310 305 307 308 307 306 305 304 308 309 307 306 301 296 298 298 295 290 287 286 285 288 288 285 289 287 289 292 295 297 298 297 296 296 287 289 293 296 297 297 298 297 317 321 322 323 323 322 322 323 323 323
308 308 308 307 307 307 307 307 307 308 308 308 308 308 308 309 309 310 311 311 310 311 307 303 306 306 293 303 312 305 303 307 306 304 309 311 309 308 307 305 304 302 303 305 306 307 305 303 300 300 297 292 290 290 285 282 283 283 287 286 288 288 289 287 292 296 297 296 291 295 291 292 294 294 295 297 298 296 316 319 322 322 322 322 322 322 322 322
307 307 307 307 307 307 307 307 307 308 307 307 307 306 305 308 310 309 309 310 311 309 308 310 307 301 296 304 297 301 305 305 304 302 307 310 310 308 306 304 304 303 303 302 305 302 302 298 296 290 291 293 292 286 283 280 284 282 285 286 287 288 289 289 288 292 294 294 293 292 292 293 295 295 295 295 313 309 315 318 321 321 321 321 321 322 322 322
307 307 307 307 307 307 307 307 307 307 307 307 307 307 308 309 310 307 304 306 302 297 292 297 296 286 290 299 303 305 306 307 308 303 300 307 307 307 307 307 304 301 298 298 296 301 297 295 295 289 287 287 288 289 285 287 289 288 289 287 287 286 288 288 293 296 296 291 290 291 291 292 293 296 294 296 305 312 315 318 320 319 319 319 320 320 320 320
307 307 306 306 306 306 306 307 307 307 307 304 302 301 303 301 301 302 304 304 300 299 296 300 300 300 300 299 299 307 311 307 302 302 302 306 306 303 302 304 302 301 295 293 295 298 297 290 286 285 286 289 291 290 290 291 291 291 290 290 288 288 289 292 294 296 296 292 291 292 293 291 293 294 294 296 299 311 312 312 314 316 317 317 316 318 318 319
306 306 306 306 306 306 306 306 306 307 307 304 301 296 294 299 294 294 299 300 304 304 301 302 302 300 298 302 304 303 300 301 302 300 301 307 304 301 298 300 296 294 293 295 295 300 297 288 287 289 291 291 292 292 292 291 292 290 289 289 287 288 288 293 294 298 297 294 290 291 291 291 293 295 295 295 296 306 311 310 312 315 316 316 317 317 317 318
306 306 306 306 306 306 306 306 306 306 307 303 299 294 295 298 302 302 298 291 300 304 303 301 304 301 305 304 306 306 304 299 299 300 302 305 301 298 295 297 293 291 293 295 295 292 289 288 291 293 294 294 294 294 293 291 291 290 288 287 287 286 290 294 294 296 296 296 290 290 290 291 293 293 295 295 297 298 312 313 313 314 315 316 317 317 315 318
305 306 306 306 306 306 306 306 306 307 301 297 296 295 294 300 306 304 300 295 294 301 303 302 300 300 301 306 307 309 300 297 296 300 299 303 297 299 295 293 292 293 293 293 289 288 287 289 294 296 294 293 293 293 293 293 293 288 288 287 285 288 288 285 291 295 296 295 291 290 290 290 293 295 295 296 296 298 307 314 314 316 315 315 316 317 316 318
305 305 305 305 306 305 306 306 306 302 299 298 297 296 302 303 301 299 298 292 291 296 300 302 303 302 301 300 306 305 301 299 299 299 303 301 296 297 295 295 290 291 290 292 291 289 289 294 297 296 294 293 292 292 292 289 286 290 291 288 287 288 289 289 288 294 296 293 295 290 287 285 288 293 294 296 296 298 298 310 312 314 317 317 318 317 317 318
305 305 305 306 305 306 305 305 299 300 301 300 298 302 302 302 302 300 296 293 293 293 300 300 304 304 304 310 310 302 300 300 301 302 302 301 297 295 293 297 293 288 290 292 292 290 291 297 299 295 294 293 291 290 291 291 285 287 290 291 291 291 291 292 293 291 286 285 290 291 279 280 285 289 291 294 293 295 297 307 310 312 314 314 314 316 316 316
305 305 305 305 305 305 306 298 299 300 298 296 301 306 305 305 304 302 298 289 283 292 295 289 303 296 309 301 305 304 300 293 301 301 303 301 304 299 295 292 294 288 291 291 291 290 292 297 297 295 293 293 292 291 292 292 287 286 287 293 293 293 293 293 292 290 281 282 288 293 281 277 283 288 291 292 292 294 295 294 301 308 310 312 313 314 314 314
305 305 305 305 305 305 298 295 300 299 295 299 303 305 306 307 308 303 292 284 280 293 288 296 296 295 302 300 303 302 286 288 301 302 301 303 299 301 292 289 294 295 295 296 291 287 296 295 294 294 294 292 291 289 293 293 288 284 292 294 293 295 292 292 292 290 284 290 291 291 287 280 280 284 290 293 292 294 296 302 301 301 307 307 310 312 312 314
304 305 304 305 304 304 299 300 298 295 296 302 306 306 306 307 308 306 291 278 277 295 290 292 296 305 301 301 303 296 293 297 293 297 302 303 303 298 295 290 291 291 294 292 283 290 294 293 293 292 292 291 290 293 295 293 290 287 293 295 293 293 293 292 291 288 288 287 281 284 289 284 279 284 292 292 293 296 298 302 305 311 311 306 308 312 315 316
305 304 304 304 305 305 303 300 298 295 302 304 304 305 307 307 304 296 285 278 293 292 303 292 305 299 299 300 298 297 296 298 291 296 301 303 304 298 291 293 293 293 294 293 287 290 294 295 295 295 291 288 294 296 296 294 290 293 296 296 296 295 294 294 289 288 286 283 278 283 289 282 277 284 296 297 298 297 296 301 309 312 313 314 314 316 318 319
304 304 304 304 303 300 298 301 298 302 303 305 305 305 306 303 295 285 278 274 296 288 296 296 295 292 295 293 293 295 293 296 298 298 300 298 300 301 300 300 295 293 292 295 291 292 295 301 300 296 292 294 294 295 297 295 295 295 295 293 292 290 290 289 287 284 282 279 277 285 289 286 277 288 293 294 297 299 298 303 310 312 313 314 315 316 318 319
304 304 304 305 298 299 299 294 299 304 305 305 303 303 302 297 286 280 275 283 296 293 296 294 292 296 292 291 289 294 294 295 296 295 293 299 296 298 297 294 297 291 287 288 289 291 293 294 294 295 299 298 297 294 297 299 297 296 292 290 288 285 284 284 281 283 280 271 278 285 289 286 278 281 295 301 305 306 305 307 309 311 311 312 314 315 316 316
304 304 305 302 302 303 296 294 303 304 303 303 303 301 294 283 287 281 280 300 283 289 290 289 293 293 292 294 292 292 291 293 295 292 289 291 291 291 290 284 288 282 282 282 283 289 289 291 293 295 301 297 294 293 290 293 293 292 289 288 284 276 276 275 279 277 276 275 281 286 287 284 280 286 299 304 306 309 311 312 311 311 310 311 312 313 315 316
304 304 305 304 304 300 301 302 303 303 303 302 301 297 289 279 276 282 285 290 284 294 291 296 292 293 293 292 290 293 295 289 293 293 292 291 291 292 292 292 289 286 279 282 284 284 285 290 292 294 296 298 296 289 287 288 289 288 287 282 281 276 276 270 272 273 276 281 286 285 288 281 290 296 302 303 306 309 310 311 311 311 311 312 313 313 314 313
304 304 300 302 302 302 303 304 304 303 301 301 297 293 288 280 279 297 288 289 290 296 295 294 293 293 293 288 291 293 288 293 293 291 292 287 290 286 289 290 291 290 290 285 282 282 277 283 288 291 288 296 294 292 290 287 288 289 288 288 283 280 277 272 275 273 275 279 281 288 284 278 286 290 303 306 308 309 310 310 311 311 311 312 314 314 314 313
304 303 301 301 301 303 303 304 303 303 301 298 293 287 280 280 286 286 287 288 289 294 292 295 292 291 289 290 292 293 291 287 293 291 288 287 284 286 287 287 290 291 287 281 285 283 284 283 288 294 294 295 294 295 295 292 291 291 290 289 284 282 280 279 275 277 278 278 278 283 279 286 290 300 305 308 309 308 309 309 310 310 311 312 312 313 313 312
302 300 301 298 301 304 304 304 303 303 299 296 288 283 281 287 284 292 288 293 291 288 288 292 291 287 285 287 290 290 294 290 291 290 289 288 288 288 291 290 290 292 286 281 282 282 285 281 290 294 295 294 295 296 295 294 283 287 289 284 287 291 289 281 280 283 277 278 275 279 287 292 296 299 303 306 305 306 307 307 309 310 311 312 311 312 312 311
298 300 296 302 303 306 304 304 304 301 298 296 287 282 287 291 294 293 296 290 290 290 287 280 284 283 283 282 285 288 289 292 291 290 284 290 286 291 290 291 294 292 292 290 285 286 280 281 290 291 290 295 296 298 296 297 293 289 283 286 291 293 291 284 276 277 276 273 273 283 283 285 287 284 299 304 303 304 305 306 308 310 311 311 311 312 312 312
297 297 299 300 304 308 305 305 303 300 299 294 283 290 297 292 299 296 297 292 291 290 285 283 285 288 284 284 282 286 289 287 287 290 286 290 287 300 296 296 298 294 292 292 287 286 289 280 283 289 291 293 298 297 293 295 297 292 290 294 288 281 282 284 280 274 272 273 272 279 283 284 282 287 295 300 301 302 303 305 307 308 309 310 311 312 313 314
298 296 296 305 309 307 305 305 304 300 294 288 283 286 294 296 300 298 298 294 293 290 284 288 285 289 288 284 288 288 289 283 289 287 285 288 285 295 297 298 298 299 295 293 287 286 289 280 281 289 292 294 294 292 285 289 294 295 295 292 293 291 284 282 281 279 278 273 272 274 282 279 292 291 300 300 302 302 303 305 306 308 309 309 310 311 312 312
295 295 297 311 309 308 306 305 301 297 290 283 285 289 296 292 295 297 295 294 291 289 289 288 290 285 289 289 290 285 289 289 288 287 287 291 292 299 296 300 298 298 299 295 292 291 284 286 277 283 290 293 286 290 286 289 286 289 289 288 290 289 293 290 290 282 280 273 272 274 275 283 290 300 301 302 303 303 305 305 306 307 308 308 308 308 309 309
299 296 298 311 309 308 306 303 295 291 287 288 291 290 291 291 295 296 297 295 292 295 290 291 289 286 290 287 287 290 288 287 289 287 288 291 289 285 299 301 300 298 298 296 296 292 283 281 281 282 285 283 288 293 293 293 292 288 286 286 287 286 284 281 279 287 284 281 276 274 273 284 295 304 303 302 301 304 307 306 304 305 306 306 306 307 307 307
297 293 298 311 308 307 302 292 291 293 289 286 286 293 291 301 296 296 295 294 295 290 294 292 293 292 290 289 290 287 288 286 288 290 293 289 295 293 297 302 301 301 295 288 291 298 292 286 282 282 281 285 289 298 300 301 301 299 297 293 295 287 284 280 278 279 284 286 284 280 280 280 296 304 304 304 303 306 306 306 304 305 304 304 305 305 305 306
296 295 311 314 314 307 296 287 290 289 288 290 296 295 297 296 296 296 292 294 292 293 292 292 294 292 292 290 290 288 289 286 288 288 293 294 295 297 300 302 303 302 298 292 296 295 310 280 279 280 284 288 293 300 300 301 300 297 298 298 295 290 290 284 281 282 282 283 280 278 279 285 300 305 304 305 306 307 306 305 304 304 304 303 303 302 303 303
297 300 303 313 314 309 295 283 285 284 289 295 296 296 300 298 297 294 292 293 292 291 292 293 293 293 292 291 290 288 290 280 290 289 289 294 292 300 300 301 302 299 298 294 292 296 285 285 282 278 277 279 281 289 292 296 297 293 293 295 297 295 294 291 288 284 282 283 282 281 278 286 299 304 305 305 305 304 304 304 304 301 301 301 301 301 302 302
295 302 303 305 309 305 293 293 291 285 290 293 293 293 294 296 296 294 293 294 295 292 291 290 293 293 291 293 290 291 292 288 284 293 294 294 294 299 299 299 302 300 304 307 309 302 288 287 282 277 273 272 272 276 281 284 287 291 296 296 297 295 292 287 283 280 279 283 284 281 283 291 300 303 303 303 302 301 302 301 301 300 299 299 299 300 300 300
295 285 294 299 302 301 299 302 297 294 289 290 286 290 294 291 295 294 293 294 295 294 291 293 292 292 290 290 288 289 291 294 290 289 290 290 293 297 298 300 301 302 308 309 307 298 288 291 285 280 275 274 278 283 290 291 289 286 292 294 294 295 292 289 284 280 280 281 280 287 292 293 296 299 300 301 301 299 299 299 298 298 298 298 298 298 298 299
298 291 288 287 297 297 295 299 297 296 287 293 284 291 290 292 294 293 293 289 293 292 292 292 292 288 289 287 287 288 292 291 293 292 292 292 295 296 298 298 298 307 309 304 307 293 287 285 290 288 287 288 289 291 293 294 289 290 290 290 294 293 291 288 280 284 287 282 280 288 296 294 295 296 297 296 297 296 297 296 296 296 296 296 296 296 297 297
290 292 296 297 290 285 289 289 296 294 296 296 288 293 291 291 291 285 292 293 293 294 288 289 291 291 291 290 288 283 288 288 289 285 294 293 294 290 292 296 296 303 304 299 301 294 286 283 293 290 290 293 294 293 293 291 290 290 289 290 291 292 291 287 287 290 286 280 282 293 297 294 294 295 295 294 295 294 295 295 295 296 296 295 295 294 294 294
300 297 298 301 290 293 293 294 298 296 294 295 289 292 290 291 289 293 291 291 293 291 292 281 288 291 292 292 287 284 286 281 282 289 289 289 291 288 287 290 295 296 297 294 295 294 288 284 293 293 290 292 294 293 292 289 288 288 289 290 291 292 290 290 289 289 291 289 294 292 289 287 291 292 293 294 294 294 294 295 294 294 293 294 293 293 293 293
296 295 292 298 298 293 293 293 294 295 292 296 288 289 293 292 290 291 294 290 284 289 293 288 290 291 292 292 289 286 289 288 288 282 291 288 285 289 288 286 287 293 295 292 294 292 289 285 294 291 287 288 291 292 291 289 288 285 287 288 289 291 290 289 288 292 295 292 291 289 287 286 291 294 294 295 294 294 293 291 291 292 292 293 292 292 292 292
302 304 303 297 290 291 294 294 292 293 289 289 288 289 292 294 291 294 294 295 289 290 293 290 291 291 292 291 290 289 292 292 291 290 291 289 284 292 286 288 293 290 295 291 292 290 288 283 289 287 284 284 289 288 288 288 287 286 285 286 287 289 287 288 286 288 292 290 290 288 286 285 290 292 292 293 292 291 290 290 290 291 292 291 291 291 291 291
307 307 307 300 290 294 291 291 291 290 286 286 290 292 291 290 294 292 285 292 294 294 294 292 292 290 289 289 289 291 293 292 293 293 292 291 291 291 292 293 293 291 290 291 291 287 285 283 285 282 284 281 288 288 287 286 285 284 284 285 288 290 292 293 293 293 292 295 289 287 286 290 290 292 289 289 290 290 290 290 290 290 291 291 291 290 291 291
Wind_Speed
11 12 10 11 12 12 11 11 11 11 11 11 12 12 12 12 12 13 12 12 13 13 14 14 14 14 14 14 15 16 14 8 9 4 4 16 7 13 8 9 8 13 13 1 2 1 0 1 2 2 1 1 3 1 4 3 3 2 2 4 6 5 5 4 3 2 2 0 5 5 3 3 2 5 1 6 10 10 7 10 4 14 10 11 10 14 12 11
12 12 12 11 12 12 12 11 12 12 11 11 11 12 12 13 13 13 13 13 13 13 14 14 15 14 14 14 15 16 12 7 9 10 18 7 14 14 13 14 12 9 13 3 5 4 4 3 4 3 2 1 1 3 2 2 4 4 2 4 10 5 5 3 1 6 3 1 1 4 3 2 1 1 3 4 1 6 10 10 11 14 12 14 13 12 12 12
12 12 13 12 12 13 13 12 12 12 12 12 11 11 12 13 13 13 13 13 14 13 14 14 15 15 15 15 15 15 9 5 5 10 14 15 22 17 13 10 10 16 13 6 6 7 7 5 4 3 1 1 2 4 0 4 2 5 5 6 9 3 4 4 4 6 6 3 2 2 1 2 3 1 1 3 4 6 10 7 8 13 12 12 12 13 12 11
12 12 12 13 12 13 13 13 13 13 13 13 12 12 13 13 14 14 13 14 14 14 14 14 15 15 15 15 15 11 3 4 4 5 3 2 13 19 14 13 14 15 8 2 4 5 1 1 2 4 2 3 3 1 2 5 1 3 4 7 5 3 4 6 0 5 8 3 1 1 3 3 4 2 1 7 7 0 4 10 13 14 14 14 13 13 12 12
12 12 13 13 13 13 14 13 13 14 13 13 13 12 13 13 14 14 14 14 15 14 14 14 15 15 15 15 16 4 2 3 3 2 3 10 9 18 16 13 14 10 10 3 3 2 0 0 0 2 2 3 2 1 4 4 4 2 6 7 6 4 4 9 7 6 5 5 1 1 1 2 3 1 6 2 3 4 7 7 10 18 18 17 14 13 11 12
13 13 14 14 13 13 13 14 13 14 14 14 13 13 13 13 14 14 14 14 14 15 14 14 15 15 15 16 8 1 0 1 2 4 5 5 10 16 15 13 12 7 4 1 3 1 2 2 2 1 3 3 3 5 4 6 3 6 7 5 7 7 6 5 5 3 2 1 1 1 1 1 4 3 2 4 2 4 3 10 16 20 19 17 16 15 13 12
13 13 13 13 14 14 14 14 14 14 15 15 14 14 14 14 14 15 15 14 15 15 15 14 14 15 15 13 1 2 1 9 4 6 7 6 11 15 11 9 9 6 5 4 3 3 4 2 4 5 3 5 7 6 10 2 5 8 9 4 7 8 10 10 6 4 5 8 5 3 2 1 1 4 1 3 7 2 6 16 17 17 16 16 15 14 15 15
12 13 14 13 13 14 14 15 15 15 15 15 15 15 14 14 15 15 15 15 15 15 14 14 13 13 12 5 1 1 1 9 15 7 7 7 7 8 10 5 7 5 7 9 7 7 3 4 8 3 5 6 4 7 5 5 5 9 11 9 6 5 7 8 7 5 4 6 4 4 3 4 4 2 0 4 7 2 9 14 16 18 16 13 12 13 12 11
12 13 13 13 13 14 14 15 15 15 15 16 15 15 15 15 15 15 15 15 15 15 14 13 13 9 6 1 2 2 7 9 7 5 10 9 7 8 10 5 4 10 6 6 7 5 4 4 4 5 5 7 7 5 3 0 6 6 11 6 5 6 6 7 4 5 5 3 4 3 4 4 8 2 2 6 6 3 11 14 17 17 17 14 13 12 13 13
13 13 13 14 13 14 14 14 15 16 15 15 16 16 16 16 15 16 16 16 15 14 14 13 11 8 2 2 1 1 8 8 4 8 11 10 8 8 5 3 9 6 6 7 5 6 9 6 8 4 6 6 4 6 1 3 6 4 7 9 10 7 5 4 5 4 1 2 3 3 3 3 2 5 4 4 8 8 12 15 15 17 16 14 11 11 11 14
13 13 14 13 14 14 15 14 15 16 16 16 16 17 16 16 16 16 16 16 15 15 13 11 9 6 1 1 4 7 8 4 1 4 12 11 10 7 9 7 10 8 7 7 10 13 9 9 5 3 3 5 2 4 3 4 3 6 7 6 6 7 6 5 4 6 1 3 1 1 3 3 3 2 7 5 5 11 14 15 14 13 14 13 12 11 10 10
13 14 13 13 14 15 15 15 15 16 16 16 17 18 17 17 17 17 16 16 16 14 12 10 8 3 1 3 4 10 4 3 3 4 1 7 7 12 9 8 11 11 10 9 11 9 8 9 5 2 4 3 3 2 6 3 4 5 5 3 5 3 3 1 3 3 0 3 1 3 2 4 2 5 6 8 4 11 13 13 12 10 10 10 11 9 8 9
13 13 14 13 14 15 15 15 16 16 17 17 17 18 18 18 17 17 16 16 12 13 12 9 4 4 1 2 11 15 9 9 9 7 1 5 3 2 6 8 11 10 12 9 9 10 9 6 1 4 5 2 2 1 4 4 4 4 1 3 3 5 5 7 1 1 1 2 3 4 4 10 7 9 7 6 5 8 12 11 11 9 9 9 10 9 8 4
13 13 14 15 14 15 15 15 16 16 17 17 18 18 19 19 19 18 17 16 16 14 11 7 3 2 1 7 7 3 7 10 10 9 10 8 5 4 6 6 8 8 5 4 4 1 3 5 7 9 2 3 3 3 4 4 3 1 3 1 1 4 6 1 1 2 2 2 5 4 4 11 8 9 10 7 4 6 14 12 10 10 9 9 8 7 7 6
14 14 14 14 15 15 15 16 16 17 17 18 19 19 19 20 19 18 18 15 13 10 8 7 4 2 1 9 7 13 17 8 8 11 8 8 10 2 5 6 7 9 9 8 3 3 4 6 3 4 3 2 1 2 5 3 2 3 3 2 3 2 9 2 1 2 7 1 6 6 5 11 12 6 9 7 3 6 13 11 13 12 10 10 8 8 7 7
14 14 14 14 14 15 15 16 17 17 17 18 19 21 21 21 19 18 17 14 14 13 6 3 4 2 1 8 5 9 5 4 7 13 10 10 11 5 6 9 7 7 5 4 6 5 3 2 1 3 0 2 1 0 3 6 5 4 1 3 1 3 6 8 4 7 10 5 2 9 7 6 7 9 9 5 3 5 14 13 12 13 12 10 9 8 7 7
14 14 14 14 14 15 16 16 17 17 18 18 20 20 21 21 19 16 15 12 6 4 5 2 5 3 1 3 5 4 5 4 3 3 7 11 10 7 3 3 3 6 7 5 5 6 2 1 1 1 2 2 2 1 1 3 5 4 2 2 5 5 1 3 7 5 8 8 4 8 6 9 8 4 2 3 5 6 15 15 14 13 10 9 8 8 9 9
14 14 14 15 15 15 16 16 17 17 18 18 17 20 20 22 18 13 9 5 4 4 5 4 3 1 10 3 4 6 0 2 4 4 8 9 10 7 4 4 2 5 3 4 1 3 1 1 1 3 3 1 2 2 5 7 6 3 1 4 6 3 3 6 1 5 3 4 10 7 9 10 12 6 5 5 5 8 12 15 15 12 10 9 9 9 9 8
14 14 14 15 15 15 16 17 17 17 17 17 19 21 20 12 3 4 2 3 4 1 0 4 4 4 3 6 8 7 4 3 1 4 4 8 4 3 2 1 3 4 1 1 4 1 1 1 4 1 4 3 5 6 7 8 4 4 4 2 1 3 6 4 6 8 6 3 6 10 11 11 6 11 3 5 3 4 4 9 11 10 11 11 11 8 7 6
14 14 15 15 15 16 16 16 16 16 16 11 10 9 2 2 1 0 1 4 7 7 1 6 11 4 10 7 3 1 5 6 5 6 3 4 4 5 2 3 1 3 3 4 1 2 3 3 4 6 7 7 4 6 7 7 4 5 2 0 3 5 5 4 5 8 4 3 8 12 11 6 6 10 5 1 2 8 7 3 2 3 6 6 5 6 7 7
15 15 15 16 15 16 16 16 16 14 14 7 9 5 1 2 0 1 5 9 12 9 13 6 15 12 12 5 8 4 7 5 4 5 9 4 3 7 3 3 2 5 3 5 4 1 4 3 7 9 10 9 8 5 5 5 4 6 5 2 6 3 9 4 6 10 5 8 4 3 6 7 8 10 3 2 5 6 10 8 7 9 7 7 10 10 9 7
15 16 16 16 16 17 17 16 15 15 9 3 3 4 6 7 2 2 1 5 7 13 11 13 8 11 13 13 15 5 4 6 8 6 3 8 3 7 2 4 4 8 4 2 1 1 3 7 10 12 9 5 5 4 5 5 6 6 4 4 2 6 8 8 5 4 7 1 1 3 7 8 9 3 6 3 4 6 11 15 14 12 10 8 9 9 10 11
15 15 16 16 16 17 17 18 14 13 6 1 3 5 8 9 4 4 3 5 9 7 11 13 9 14 16 11 11 2 7 6 7 7 5 6 4 9 5 5 6 5 3 5 6 3 3 6 14 11 5 5 5 5 4 3 3 5 3 1 5 5 4 7 5 4 8 2 4 3 5 4 4 4 3 2 5 1 7 12 14 14 15 13 13 12 12 13
15 16 15 15 17 17 18 17 17 8 3 7 8 11 8 8 9 9 5 2 5 5 11 12 12 6 12 10 3 11 9 4 4 8 6 7 8 5 3 6 4 3 7 6 8 8 9 10 7 6 6 7 7 6 4 3 6 5 4 4 4 4 5 5 6 3 2 7 2 4 2 5 2 0 2 7 3 2 3 8 5 9 13 17 13 8 13 17
15 16 15 16 17 18 19 19 6 2 4 3 7 11 14 14 12 5 1 4 2 6 6 6 7 7 11 4 4 3 4 3 9 3 7 10 5 5 4 2 3 6 4 6 7 6 9 13 2 4 6 6 6 6 6 6 6 4 5 8 8 8 9 5 4 5 7 4 3 1 4 2 5 4 6 7 6 6 1 7 9 11 10 1 6 13 9 7
15 15 15 15 17 18 19 6 1 7 9 6 6 5 6 10 10 5 2 1 5 4 3 4 8 8 7 5 6 5 3 4 9 3 8 8 9 9 3 3 3 8 8 4 6 4 9 7 6 8 7 8 7 7 8 7 8 4 5 9 9 9 5 2 5 3 1 1 2 3 5 1 6 3 3 6 4 8 6 3 5 5 3 3 5 7 5 8
14 15 15 15 15 15 7 1 5 8 5 2 3 11 12 13 1 3 2 2 3 4 6 1 7 1 5 6 10 7 3 5 4 3 8 6 6 4 6 6 3 1 4 2 1 4 4 7 6 5 7 9 7 8 7 9 6 3 3 6 4 1 4 4 3 0 4 1 3 4 3 2 1 4 5 3 4 9 8 8 2 6 12 10 5 2 8 6
14 14 14 15 14 11 6 7 9 6 8 6 9 11 14 10 7 3 2 0 1 3 3 3 4 1 2 6 12 8 5 3 5 5 7 8 4 3 4 8 7 8 4 5 7 7 7 7 7 7 5 7 8 9 12 8 6 6 6 7 3 5 6 3 1 4 2 2 5 6 2 0 1 4 7 4 6 7 8 9 9 10 10 5 3 10 9 8
14 15 15 14 15 16 9 4 3 8 4 6 10 12 9 10 1 3 2 1 2 2 3 5 2 4 1 6 9 7 5 3 5 5 4 7 9 5 6 6 5 6 4 6 8 4 3 9 10 12 8 7 9 14 11 10 7 7 6 5 2 2 0 1 3 4 4 2 5 3 1 1 3 6 7 5 5 4 4 8 8 9 10 11 10 9 11 9
15 15 15 15 10 5 3 2 8 11 8 9 11 14 13 2 2 1 1 2 2 0 1 0 1 7 4 8 6 8 9 3 2 1 5 6 8 5 2 3 4 4 3 1 4 8 7 6 4 4 7 9 10 9 11 11 12 2 6 4 2 1 0 1 3 2 3 2 3 4 2 2 1 4 5 5 2 5 3 4 7 9 11 13 13 12 11 11
16 16 15 13 5 4 6 6 8 4 5 9 13 12 1 3 2 1 1 4 2 2 2 1 2 5 6 11 7 6 8 4 1 5 2 3 3 4 0 2 2 1 1 1 4 5 4 4 2 2 5 4 6 4 6 15 7 6 2 4 0 4 4 2 2 4 1 3 5 7 1 4 1 1 7 4 5 6 5 6 8 11 13 12 10 10 11 10
13 16 16 10 8 6 5 6 2 5 9 12 12 3 3 1 2 3 4 3 0 3 3 4 3 5 10 8 5 8 7 2 1 4 6 6 5 7 4 4 4 3 3 1 6 4 5 8 3 5 4 7 4 6 3 1 4 6 5 5 6 3 1 3 2 2 2 3 4 4 2 2 1 2 1 4 7 9 9 9 9 10 10 10 10 9 7 6
13 14 21 13 11 7 12 15 10 9 11 10 5 2 2 2 3 4 3 2 1 2 2 4 7 7 8 7 6 7 5 5 4 4 7 3 7 8 5 8 4 6 2 3 3 1 7 4 3 5 4 5 5 7 3 4 1 7 7 6 5 2 0 2 1 1 2 5 7 4 1 1 1 0 2 5 6 9 10 10 10 10 10 10 9 8 7 6
15 16 11 9 8 10 9 7 6 4 6 7 1 2 1 0 3 4 6 1 3 3 0 4 6 6 11 8 7 6 5 4 6 4 9 4 7 6 5 5 5 2 3 0 3 4 1 7 8 2 2 3 4 6 9 5 6 7 6 9 7 6 4 2 2 3 5 7 4 3 1 4 5 2 1 4 6 9 9 9 9 9 8 7 8 7 7 6
18 17 11 9 7 11 14 11 5 2 2 4 3 2 4 4 2 2 2 2 2 2 4 4 7 7 6 4 3 6 4 2 4 5 5 8 6 6 8 6 4 4 2 3 3 2 7 6 8 5 4 3 6 4 6 5 2 1 4 7 7 5 7 3 6 4 2 0 1 1 1 0 4 2 3 4 9 11 9 10 12 11 9 8 9 8 6 5
15 6 6 5 4 5 10 8 6 4 3 0 4 2 4 3 2 1 2 3 4 2 3 5 3 5 3 4 3 4 7 3 6 3 3 8 7 8 8 4 7 10 5 6 4 1 2 4 5 7 4 5 7 5 4 7 2 3 3 3 7 6 7 2 1 2 4 3 4 1 2 2 1 6 5 9 10 7 9 9 10 9 8 9 7 5 5 6
9 9 4 4 6 4 7 9 9 7 3 2 2 3 5 5 7 5 3 3 5 4 5 5 3 2 4 5 3 5 6 6 6 6 3 3 1 2 3 5 7 9 12 10 3 4 5 6 6 2 4 7 5 8 5 7 8 4 2 7 1 2 5 6 4 1 1 3 4 2 6 3 4 3 1 4 8 8 8 8 7 8 8 9 6 6 5 5
9 7 8 7 10 7 9 11 11 5 1 3 2 4 2 4 4 5 4 4 3 4 4 3 2 7 0 1 2 1 5 9 6 7 4 6 1 1 1 2 3 2 4 4 5 3 4 5 5 4 6 6 1 1 1 2 3 9 7 4 5 2 2 3 4 1 1 2 2 0 1 1 2 1 1 3 5 7 7 6 8 9 8 8 7 7 6 5
6 4 5 5 7 11 11 12 8 6 2 3 2 2 4 6 10 8 9 4 1 1 4 3 2 2 2 3 1 2 4 1 8 7 7 2 3 1 1 1 1 2 5 9 4 2 2 4 5 4 1 2 2 3 4 3 4 2 3 2 2 4 2 1 6 5 6 3 2 2 3 2 1 1 3 5 6 8 8 9 11 10 9 7 7 7 9 10
3 2 1 1 12 11 13 9 4 2 2 3 3 3 3 7 9 11 7 2 2 3 0 2 2 2 3 2 1 2 2 4 2 2 5 2 5 3 3 3 0 1 6 7 3 1 1 1 2 3 3 2 1 1 6 7 5 1 1 0 2 1 2 4 1 3 5 5 5 5 0 1 2 0 6 6 5 7 9 11 9 9 11 11 10 9 10 10
3 2 2 3 12 12 10 3 3 2 2 3 2 4 7 5 7 13 8 4 1 2 2 1 1 2 0 4 5 4 3 4 4 3 2 3 2 1 3 2 1 0 2 5 7 3 1 1 5 4 4 1 1 3 2 2 4 4 5 3 3 1 4 4 7 2 2 2 3 4 2 1 2 0 3 5 2 5 8 11 11 11 11 9 8 9 9 8
3 1 2 5 9 13 7 5 1 2 1 2 2 2 3 4 7 10 3 2 1 1 1 2 1 1 1 2 1 3 2 3 3 4 6 5 4 2 2 6 3 2 3 2 2 1 1 2 3 1 4 5 3 10 15 19 16 11 8 0 1 3 4 1 4 4 3 2 6 4 7 2 1 3 4 3 3 6 9 11 11 9 9 8 7 8 9 9
1 1 2 3 3 2 5 1 1 1 2 3 5 11 11 10 7 7 4 3 3 1 1 2 0 2 3 2 3 4 4 3 2 3 6 5 5 4 4 2 3 4 4 2 1 1 5 2 1 3 6 2 3 10 15 11 10 8 5 3 5 4 1 4 4 3 5 2 2 1 3 2 1 3 3 5 6 7 7 9 10 9 8 9 10 9 9 10
3 2 2 1 1 1 1 2 1 3 3 5 5 9 7 7 5 5 1 2 2 2 0 0 2 2 1 2 3 5 5 2 4 4 5 3 3 5 5 5 5 3 2 1 2 3 1 1 2 1 2 5 3 2 6 6 9 5 2 4 2 1 2 2 3 2 2 3 5 7 5 3 4 5 4 7 9 10 9 8 9 10 8 8 8 8 8 9
3 1 1 4 2 2 2 3 1 0 2 3 3 6 4 2 4 4 1 2 1 3 1 1 1 1 3 1 3 4 7 3 2 7 5 3 2 2 7 7 7 5 4 2 3 1 5 0 2 2 4 5 3 2 1 3 1 2 2 7 7 7 5 3 1 2 2 2 2 3 2 1 7 8 9 9 10 11 10 11 10 10 7 7 8 7 8 8
0 1 1 1 1 1 2 1 1 1 1 2 2 6 3 2 4 4 5 1 2 2 0 0 2 4 5 5 4 5 6 6 5 1 4 2 2 3 3 7 6 3 5 9 7 4 1 1 3 3 3 4 2 3 2 4 3 4 1 6 8 4 4 5 4 4 2 2 6 2 8 12 10 11 9 7 7 11 10 9 8 8 8 8 8 8 8 6
2 1 0 2 0 2 2 1 1 1 2 2 0 1 2 1 2 1 4 1 3 4 3 3 2 3 2 4 1 3 2 4 5 6 3 3 1 0 5 5 4 7 6 4 6 4 4 5 2 7 4 4 4 2 2 4 6 2 4 4 6 7 3 6 2 1 3 8 3 1 9 11 8 9 10 9 9 9 8 8 8 7 7 7 7 8 9 11
1 1 0 3 1 3 1 5 4 5 5 1 3 2 3 3 3 1 3 1 2 5 3 5 8 4 5 1 3 2 2 5 3 3 1 2 1 5 4 6 4 4 4 2 3 3 4 3 2 3 2 2 5 9 12 11 8 6 6 4 5 6 6 4 0 1 1 2 8 6 8 10 7 9 9 8 7 9 9 9 8 7 7 7 9 10 10 11
2 1 2 1 0 2 3 2 3 6 8 4 2 2 2 1 1 0 1 1 3 3 2 1 5 6 8 7 4 2 1 2 2 1 2 0 1 1 2 2 3 5 4 3 3 1 4 1 2 3 5 4 4 7 8 15 7 8 7 6 5 4 5 4 3 3 3 7 12 14 14 11 6 7 8 8 7 8 8 8 8 9 7 7 9 11 11 10
2 1 2 3 2 2 2 1 2 3 6 6 1 5 1 0 1 2 3 2 0 1 1 6 3 9 7 9 6 4 2 4 4 3 1 2 3 1 0 2 1 2 3 2 0 3 4 1 2 2 4 2 3 6 7 9 9 10 7 8 8 3 5 6 4 6 12 10 11 14 15 11 4 5 6 6 7 7 10 11 9 7 6 8 11 11 10 11
3 2 1 3 3 3 2 2 3 6 5 3 6 5 1 0 0 1 1 1 2 1 1 4 3 8 6 9 8 6 3 3 4 4 2 2 2 1 2 2 1 1 2 1 1 1 3 1 1 2 5 2 1 6 6 11 12 12 9 10 10 8 6 3 3 1 1 9 11 13 10 6 6 8 6 7 8 11 11 10 8 7 8 10 12 11 10 10
3 2 0 2 1 4 2 2 1 4 4 5 4 2 0 2 2 1 2 5 6 2 4 5 2 9 3 8 5 2 1 2 1 1 0 2 3 1 2 1 2 3 1 1 0 2 1 3 2 2 6 2 4 7 10 5 4 5 5 5 6 4 2 4 6 5 3 5 11 8 6 7 8 7 11 9 10 10 9 8 7 9 9 10 10 9 9 10
Wind_Direction
322 323 322 322 321 319 321 322 320 321 327 329 325 324 325 326 326 324 325 326 324 325 323 324 327 328 330 327 326 325 330 320 306 274 214 240 182 221 186 209 189 199 196 226 254 122 214 168 200 264 4 83 258 199 223 192 188 141 204 203 247 227 260 219 226 245 312 29 326 354 22 82 24 338 336 57 54 87 74 71 48 46 57 89 94 101 114 127
319 319 319 320 319 318 318 321 320 320 321 323 323 324 325 324 323 324 324 324 326 322 324 325 326 329 329 329 328 328 331 293 280 264 238 204 189 208 215 230 235 171 154 205 206 186 159 199 213 152 151 255 220 228 165 246 161 169 208 174 240 191 232 154 314 323 322 214 196 309 37 97 60 218 326 78 75 89 61 46 68 79 68 85 92 110 123 134
316 315 315 316 317 316 317 317 319 319 319 321 322 324 323 322 323 324 324 323 322 324 324 325 328 328 330 329 328 334 330 302 263 262 266 228 219 198 195 205 174 150 160 176 202 186 186 189 178 137 195 237 261 234 206 258 148 218 184 228 240 216 274 278 252 268 269 210 22 20 310 55 292 323 305 111 149 104 118 115 77 107 122 119 123 126 136 144
321 319 317 313 314 315 315 317 318 317 318 319 321 324 324 322 321 323 322 322 322 323 325 326 327 330 328 327 331 329 321 269 282 252 252 4 204 202 177 164 160 167 179 186 161 174 218 229 174 163 164 198 281 208 268 250 158 257 170 218 233 219 265 265 211 261 261 179 181 323 304 23 333 342 34 137 81 332 176 165 149 155 147 145 141 145 150 154
322 321 319 318 314 315 314 315 315 314 315 317 319 319 319 321 320 320 321 321 322 323 325 326 330 329 330 327 322 348 347 23 265 234 281 337 194 180 170 162 163 172 181 161 134 245 6 33 49 198 227 238 246 333 247 255 216 299 218 229 215 255 267 262 260 254 252 334 89 58 354 295 306 56 341 343 122 203 198 207 143 148 151 149 154 159 158 159
319 312 317 319 317 313 314 313 314 314 314 315 317 316 317 319 318 318 318 320 321 322 324 327 329 332 329 325 312 156 29 242 295 294 33 26 130 152 162 169 165 159 150 92 143 101 167 242 155 212 205 211 231 188 258 224 169 243 272 253 232 223 229 264 252 269 196 199 94 63 243 260 42 311 276 307 171 228 214 150 151 154 158 159 155 156 162 160
320 320 313 314 315 314 314 313 313 313 315 315 315 315 316 316 317 316 317 318 320 322 323 326 330 331 335 328 287 105 128 272 320 254 89 89 137 151 146 138 138 137 143 133 172 168 188 185 168 214 224 223 245 215 240 254 206 221 248 233 245 232 232 253 270 239 212 147 183 203 159 252 21 332 265 316 285 200 186 145 147 146 150 154 157 169 162 167
316 320 321 316 315 312 312 313 313 314 313 313 313 313 314 314 315 314 316 317 318 320 322 323 327 330 342 350 41 359 88 253 249 236 131 108 105 114 121 119 142 139 153 180 170 192 145 195 210 186 220 202 209 186 238 232 231 222 239 233 241 219 222 234 234 241 224 237 228 128 126 231 179 216 74 272 271 64 137 136 135 142 151 162 159 160 163 160
317 313 317 314 314 312 310 311 312 311 312 313 312 312 312 313 313 312 312 313 315 317 319 322 324 329 339 74 88 14 256 234 234 163 139 137 132 125 131 138 183 155 179 179 185 174 150 234 221 199 223 214 249 248 266 248 292 225 227 234 243 236 234 230 248 250 224 229 163 109 186 235 230 121 244 236 258 131 136 134 138 141 152 162 169 165 165 166
319 316 311 316 316 313 311 314 315 312 311 310 311 310 310 312 310 309 310 311 312 313 315 319 318 330 7 72 56 120 261 229 213 165 155 141 136 143 204 150 170 167 144 200 166 175 193 212 193 202 233 277 246 244 215 244 234 238 260 238 242 249 249 268 223 259 225 211 211 210 223 240 265 133 281 291 243 110 135 138 147 148 155 164 166 169 174 171
318 316 314 314 314 310 312 312 312 311 311 311 310 310 309 309 307 307 308 308 308 309 311 310 314 312 69 60 124 220 260 338 32 145 153 145 141 156 196 179 178 177 179 175 195 195 209 230 251 320 292 230 349 286 220 219 296 295 259 283 277 266 262 260 265 275 273 313 132 160 253 258 284 138 221 239 268 134 135 150 156 153 154 165 171 174 180 182
316 312 312 314 312 310 311 312 312 311 310 311 310 308 309 307 305 305 304 305 303 304 303 300 297 262 214 101 181 226 284 39 67 68 134 148 167 199 195 181 180 186 178 178 208 208 207 228 231 212 221 328 264 272 266 307 322 260 245 250 280 338 314 281 206 246 147 267 186 142 17 301 258 233 232 222 229 125 143 153 155 144 149 161 174 174 183 188
315 314 312 310 310 310 309 311 311 311 311 312 311 307 307 304 303 301 301 299 298 298 298 290 268 252 190 330 227 238 272 293 306 326 296 221 293 240 185 187 192 197 195 182 197 211 214 229 209 231 241 242 245 267 276 295 265 296 235 187 340 349 330 268 234 200 74 236 132 98 306 264 250 247 254 248 232 125 149 152 149 149 154 165 177 181 186 174
316 315 315 315 312 310 314 312 312 311 312 312 308 306 305 303 300 298 295 290 292 294 289 277 274 276 142 240 273 232 226 246 270 276 246 210 229 237 191 211 203 213 228 242 260 270 248 222 212 225 224 233 268 290 330 333 334 244 279 51 221 23 273 270 174 77 275 169 144 105 212 273 265 261 264 260 220 142 160 155 153 156 162 169 175 183 186 178
319 316 314 316 315 312 310 312 311 311 312 310 308 306 304 301 298 294 291 291 285 282 271 272 233 175 61 266 266 268 249 230 235 226 217 196 206 227 197 207 203 206 215 218 221 233 236 261 214 200 230 218 29 32 330 354 320 296 37 303 325 174 276 294 228 179 229 319 132 125 239 250 267 259 253 253 204 140 154 157 163 165 171 168 172 177 183 176
315 314 312 313 312 311 312 312 312 312 312 312 310 307 303 298 294 290 285 280 275 269 257 255 204 206 9 293 259 314 304 169 227 210 209 196 203 209 197 196 201 208 212 255 237 258 261 195 195 209 322 11 48 119 350 11 336 339 127 265 317 209 255 351 261 209 209 215 160 167 226 301 300 251 240 260 252 155 155 161 165 171 173 168 172 174 176 157
314 314 313 314 312 311 312 313 313 313 316 314 314 308 302 291 288 284 281 275 269 229 217 224 152 227 129 230 322 287 239 227 218 128 181 203 198 206 177 160 192 214 211 245 238 225 260 185 278 308 27 137 175 97 46 338 308 310 357 220 215 214 274 248 299 280 223 188 220 203 200 244 242 293 298 345 248 215 163 163 165 173 170 170 172 174 173 172
312 313 314 312 311 312 312 313 314 316 316 318 318 311 300 291 283 280 285 254 205 225 232 274 202 202 273 316 293 236 203 202 203 175 170 193 192 196 185 190 191 176 178 220 277 211 305 300 47 186 3 37 121 98 149 220 195 217 263 264 305 313 245 241 328 274 61 208 196 194 205 234 262 281 346 320 35 139 154 157 167 166 160 171 177 178 174 166
316 315 313 311 314 314 315 315 316 318 319 322 320 309 290 279 269 141 259 154 142 109 286 209 152 152 227 218 236 326 296 235 70 139 196 184 198 158 202 175 144 153 234 119 293 187 339 43 23 54 232 240 215 180 177 215 185 213 207 184 217 299 286 276 269 280 275 184 186 175 199 223 254 273 318 339 78 97 147 153 156 160 168 172 178 169 157 148
318 316 317 315 314 314 315 315 316 317 324 325 344 330 344 41 63 346 252 231 244 220 257 172 205 293 306 275 242 201 272 227 175 221 183 191 151 156 208 184 126 140 104 184 285 252 125 163 187 207 221 228 233 191 196 226 219 262 307 19 285 299 284 276 265 266 248 169 197 191 204 184 230 253 275 262 87 116 114 109 132 163 167 166 155 156 154 139
313 317 316 315 315 314 313 315 314 314 323 329 333 331 184 206 127 217 186 224 224 233 247 212 197 212 244 322 292 347 5 330 217 205 211 167 135 124 207 183 125 189 199 174 155 261 87 180 235 218 216 211 221 209 214 257 267 249 271 316 305 310 289 272 290 301 286 191 231 194 159 194 225 247 300 299 86 140 150 154 173 186 191 180 165 171 151 110
318 316 314 313 315 315 313 313 315 313 317 332 311 269 285 258 209 62 333 283 215 225 239 245 215 247 262 263 269 309 287 258 267 234 236 167 172 167 224 170 158 189 204 114 110 64 158 202 233 229 219 215 233 219 198 195 239 260 221 250 296 280 267 288 292 324 333 127 293 176 178 221 230 287 287 203 168 174 171 170 181 181 188 188 184 168 129 122
316 315 313 313 314 314 315 314 312 314 302 207 223 214 248 244 308 333 313 249 276 203 206 222 221 233 251 262 267 206 256 239 227 215 199 170 121 198 159 166 162 190 171 156 168 147 219 262 234 229 201 199 249 239 226 248 258 245 262 182 241 242 267 300 299 30 340 38 296 175 205 269 300 253 273 280 287 128 193 186 180 180 182 187 187 171 156 143
315 314 313 315 315 318 315 317 310 300 226 220 226 223 251 299 306 334 342 254 288 254 202 209 192 205 231 219 243 172 210 233 222 213 189 151 163 153 153 175 168 155 193 190 181 170 212 236 222 218 209 192 221 244 219 191 263 261 212 208 230 270 249 197 271 348 312 335 83 77 60 335 338 143 262 291 317 337 170 211 196 192 186 191 186 162 164 162
315 315 316 317 322 319 322 313 300 252 307 230 238 242 250 262 270 251 298 324 308 277 208 229 174 217 225 208 282 298 190 234 230 165 177 160 155 108 209 189 139 208 194 193 196 191 247 245 203 190 215 218 214 252 233 169 231 285 234 198 215 236 258 266 279 21 20 344 334 102 38 295 299 314 273 293 347 316 351 181 203 198 209 146 155 190 181 94
315 315 318 320 323 328 315 295 326 343 318 259 243 284 284 283 233 211 144 74 299 266 123 235 148 238 148 217 154 196 274 247 200 185 164 182 158 169 145 229 151 201 209 171 193 198 223 233 174 209 200 219 223 222 235 160 209 213 266 197 211 217 219 252 308 49 37 154 272 87 124 253 333 305 284 284 320 295 319 79 228 254 277 203 211 206 154 117
314 315 316 323 326 336 349 319 357 324 301 259 353 333 322 321 254 168 74 303 309 218 169 120 166 296 169 172 164 138 179 260 197 152 167 152 174 144 143 211 174 194 178 167 175 247 222 239 211 197 198 211 217 239 240 175 161 221 238 158 169 315 294 279 297 134 223 267 327 6 128 156 283 285 246 294 4 345 350 346 337 242 203 189 190 77 74 120
315 313 316 321 323 329 295 298 318 302 244 301 328 324 310 303 298 59 95 230 284 192 136 215 230 98 243 164 157 171 198 176 153 214 179 164 149 167 157 181 179 199 192 165 187 254 203 225 214 211 196 201 207 219 236 155 167 214 226 184 187 213 239 256 335 271 205 46 303 314 342 90 269 278 327 11 56 359 352 346 359 33 12 339 102 99 111 105
315 314 316 318 321 316 287 235 264 258 243 324 320 302 313 303 323 111 151 117 237 113 278 111 320 129 211 131 160 191 241 146 174 210 130 150 179 128 203 207 189 203 216 162 206 269 257 205 210 205 176 200 217 223 220 156 204 254 210 183 192 162 82 321 267 297 315 34 289 293 261 169 281 295 350 334 61 5 323 357 16 22 46 55 52 62 80 92
312 313 317 320 324 318 324 223 226 247 296 312 303 310 306 337 39 68 84 257 242 110 200 90 175 181 163 150 176 184 210 187 157 81 146 164 196 140 253 154 182 205 253 248 220 223 242 290 174 196 195 206 206 216 212 198 205 190 131 138 209 26 35 27 57 88 49 321 259 251 317 126 313 332 321 9 334 259 296 27 20 22 40 50 55 58 62 68
311 310 312 317 298 310 318 279 255 248 303 321 317 298 300 34 116 112 150 235 294 82 69 157 172 130 153 164 169 195 211 212 93 129 128 134 159 184 62 219 114 49 36 2 290 288 280 261 288 234 207 224 186 206 225 207 187 144 146 157 48 317 24 31 341 38 223 287 263 265 249 102 107 286 317 343 345 9 68 69 43 47 44 44 53 64 69 71
314 311 306 303 277 277 253 244 88 358 341 326 318 1 67 137 1 175 201 353 357 228 179 194 224 163 170 171 149 158 192 195 170 149 158 158 159 182 209 184 179 179 243 221 241 334 299 269 219 256 244 234 202 193 300 114 143 120 96 68 130 269 42 285 13 249 179 190 249 244 148 49 9 210 296 8 23 36 39 42 52 60 54 47 46 50 56 68
313 307 301 287 276 243 243 255 297 322 321 324 333 49 77 129 204 241 299 308 279 113 227 165 169 167 161 145 203 180 165 205 179 209 153 141 143 207 204 192 196 144 181 240 206 14 280 277 274 265 270 214 155 175 184 151 148 115 130 136 124 156 175 216 267 182 316 297 254 248 197 145 203 331 24 41 46 63 67 59 52 48 50 54 52 52 60 64
308 305 297 270 250 233 241 245 258 305 323 319 60 60 50 142 247 219 228 264 244 299 152 195 160 139 156 174 205 152 173 224 174 195 165 151 146 186 247 249 175 173 146 198 168 185 240 302 283 181 282 200 152 161 181 174 163 182 141 146 173 153 154 208 190 173 205 210 280 298 119 224 137 208 84 84 71 60 50 57 65 54 43 52 59 57 55 53
309 300 276 273 251 239 230 227 219 236 325 338 75 110 169 230 240 243 247 292 242 229 217 196 164 156 180 202 211 179 145 233 220 150 168 141 187 174 191 217 221 129 115 121 250 98 208 218 252 212 208 196 179 205 138 106 96 246 141 78 100 212 137 159 201 141 219 259 354 7 157 14 106 203 45 50 55 56 59 52 54 49 42 41 45 39 31 24
307 291 276 260 217 235 197 198 180 178 192 81 113 174 222 211 241 240 252 286 292 301 295 148 136 144 163 223 234 209 185 165 206 129 213 180 171 180 199 181 193 188 144 173 195 191 172 267 257 270 222 203 213 153 192 120 164 272 114 157 205 183 126 134 11 71 111 40 263 184 20 35 344 52 37 59 42 30 58 59 60 68 71 70 68 53 17 14
309 314 293 238 223 186 149 158 155 156 182 125 119 228 224 270 239 280 279 314 278 334 39 100 182 114 172 193 226 198 194 188 190 163 202 110 69 332 207 233 193 187 188 159 261 185 147 235 285 103 292 254 211 177 176 161 145 85 114 239 197 105 119 130 197 2 98 165 253 151 176 174 141 203 290 95 86 67 64 62 69 66 70 73 67 52 35 27
316 299 270 254 235 144 133 148 142 160 136 81 179 242 277 291 315 284 284 302 322 21 44 75 327 47 329 77 327 278 196 181 200 167 173 150 194 335 355 80 24 264 227 210 156 261 156 282 298 244 220 245 232 112 20 298 147 158 184 192 110 236 218 313 99 189 121 205 241 5 127 118 151 193 70 75 108 98 76 72 68 62 55 66 52 30 29 38
288 296 312 240 154 136 137 150 143 137 76 91 252 249 259 239 266 273 289 289 252 26 69 28 98 333 93 57 270 320 47 204 182 180 127 187 114 239 95 126 249 281 144 155 197 273 73 161 293 304 178 255 93 120 228 245 338 357 58 80 181 112 142 156 200 177 127 227 120 277 78 188 226 217 137 143 138 107 96 77 74 69 66 56 45 36 35 39
245 282 239 115 131 131 141 147 121 64 85 180 219 236 282 306 286 298 280 25 10 64 5 91 41 65 16 51 345 320 317 24 103 236 108 343 115 247 340 57 238 23 58 106 136 146 278 132 223 276 305 318 292 192 196 182 191 187 151 236 153 189 218 115 152 142 177 176 180 159 42 256 272 236 152 142 114 113 105 94 78 69 65 58 50 42 44 38
225 288 283 99 134 132 134 119 79 125 153 265 252 271 301 276 309 302 307 70 359 144 149 84 105 71 240 26 359 321 44 9 34 35 53 71 105 61 324 352 302 214 89 51 63 24 78 39 189 305 349 17 245 317 207 185 151 146 145 52 244 154 162 188 266 359 108 145 207 135 212 277 274 69 167 130 151 120 104 94 83 71 65 58 55 52 47 45
282 104 46 43 140 138 122 109 284 158 211 214 222 231 254 296 283 281 284 299 81 336 25 95 356 138 72 77 21 336 56 35 5 85 19 99 10 103 279 321 50 322 109 104 157 195 136 171 101 216 213 216 138 62 83 87 84 84 77 228 30 111 102 83 194 263 31 76 108 136 117 255 249 154 139 139 136 110 100 95 89 81 70 64 53 47 51 49
234 181 235 140 215 174 89 65 237 170 220 231 233 257 264 264 255 302 357 339 2 45 12 57 190 69 28 53 11 37 25 62 6 91 142 97 64 15 267 222 147 64 68 343 21 310 83 66 25 299 303 305 89 93 67 46 62 40 21 40 61 23 198 170 181 197 132 149 62 14 67 229 246 100 95 116 109 92 82 86 92 78 69 58 51 38 32 36
310 317 327 265 48 208 41 148 207 231 249 256 247 264 265 262 281 283 335 350 21 333 98 234 1 60 188 46 82 45 29 95 7 97 65 65 76 335 31 48 71 49 64 235 128 264 72 301 121 43 6 338 345 342 28 19 50 78 9 331 318 231 105 158 110 111 109 219 180 132 173 228 150 129 139 123 112 105 91 71 73 77 59 55 47 45 41 36
307 278 228 298 346 131 177 203 128 219 290 322 300 288 296 274 229 184 142 13 2 341 14 347 154 95 49 39 70 66 39 91 113 14 85 57 96 340 19 33 49 76 29 107 67 94 93 208 93 144 153 173 223 215 287 340 94 92 27 335 338 26 348 35 27 7 108 311 83 79 118 163 131 136 126 113 107 97 88 84 77 74 69 57 54 42 40 33
101 113 283 8 326 144 261 157 136 177 316 293 319 265 232 261 313 53 43 29 48 8 166 224 356 79 65 54 40 43 49 39 81 341 47 27 343 3 356 11 48 61 57 45 31 79 119 44 94 151 153 178 196 184 240 117 39 75 327 22 344 341 4 82 98 83 150 209 67 319 148 133 146 144 133 115 106 105 88 74 70 71 65 61 53 44 39 36
294 195 129 155 183 195 241 267 181 131 223 207 259 281 317 282 245 351 19 68 341 22 357 21 359 49 356 71 78 70 3 69 38 79 63 102 308 255 320 33 23 38 52 55 11 77 59 58 40 105 97 161 174 118 106 84 108 50 53 349 346 355 355 73 105 194 171 87 55 315 134 125 134 108 104 93 86 81 79 74 72 62 57 58 58 49 35 30
110 259 174 217 138 214 189 286 198 221 247 251 257 314 306 356 7 56 335 359 25 31 60 326 28 19 54 128 116 78 44 66 38 83 40 26 65 342 18 343 56 1 60 17 14 102 127 125 259 83 61 65 105 108 102 83 72 94 75 1 7 345 27 89 163 97 86 146 159 150 120 113 94 83 70 63 74 85 77 72 62 61 61 62 60 54 47 41
239 238 231 225 100 253 172 251 326 249 263 211 269 295 322 41 359 89 174 335 24 348 78 63 18 10 58 54 91 128 90 68 7 337 130 80 81 57 14 346 341 12 67 41 19 93 87 359 222 112 86 60 101 115 113 110 115 76 49 33 3 32 40 52 68 339 104 119 127 118 97 78 45 54 65 66 62 73 75 73 62 54 47 59 67 59 54 45
158 77 314 342 278 266 227 225 254 232 249 241 215 262 216 234 344 337 2 79 21 308 47 80 47 52 46 63 59 63 328 153 160 108 329 101 356 67 168 191 182 343 64 62 53 346 103 254 171 100 87 50 33 78 85 110 117 92 48 28 22 14 59 46 59 65 89 81 106 111 107 105 86 66 71 66 70 72 66 57 54 51 50 59 65 61 51 44
307 321 347 321 324 256 204 184 208 194 215 205 189 269 46 262 250 146 265 105 163 150 62 138 130 71 53 64 60 66 71 108 107 131 161 119 114 199 107 291 121 96 19 43 49 329 69 214 17 75 103 142 200 102 112 110 96 88 52 19 5 11 36 6 54 253 61 147 133 114 110 132 129 97 76 56 59 62 64 60 51 40 43 51 55 51 47 41
265 263 227 145 233 275 311 262 249 117 186 225 162 245 101 275 278 90 64 353 22 63 149 142 117 94 53 71 60 37 78 121 27 316 162 167 160 199 141 244 147 159 206 90 295 84 142 109 114 96 122 199 175 148 147 137 77 47 22 338 328 352 35 98 52 56 27 147 143 149 130 112 126 118 96 67 65 63 61 56 59 48 42 55 58 52 50 47